STARLINK-36171 (67027 NORAD) Tracking and Keplerian Element Data

This shows tracking and keplerian element data for the satellite.

Feedback or suggestion? Click here.




ElementValue
Catalog67027
NameSTARLINK-36171
Epoch Orbit143
Epoch Day354.25003472
Epoch Year2025
RAAN301.9221
Inclination69.9931
Eccentricity0.0003919
Argument of Perigee272.9599
Mean Anonmoly348.9349
Mean Motion15.93089198
Decay Rate-0.01323528
L11 67027U 25293AA 25354.25003472 -.01323528 51261-3 -37773-2 0 9998
L22 67027 69.9931 301.9221 0003919 272.9599 348.9349 15.93089198 1435



Live tracking and technical data element details for STARLINK-36171 (NORAD 67027). STARLINK-36171 can be tracked NOW for your location showing map with azimuth and elevation plus other details from your city location.







IsCatalogInMostPopularTable: catalog: 67027, numindb: 38
Update: records affected: 1



GetName: 67027 STARLINK-36171

Hit Count: updated at: Tue, 17 Feb 2026 12:46:36 GMT